Content
SEND FEEDBACK

Daily
Averages
Monthly
Summary
Canada

SASKATOON - WATER TREATMENT PLANT, SASKATCHEWAN


Home > North America > Canada > Saskatchewan
Elevation: 1585 feet     Latitude: 52 07N     Longitude: 106 41W

WEATHER
 
SELECT A DAY
Number of Records: 189,680;   Date Range: 1/1/95 - 10/20/14
 
SHARE

PRINT THIS DATA

[ ← Previous Day ]
WEATHER ALMANAC - JANUARY 31, 2013
[ Next Day → ]
[ °C ]   °F
Weather ElementAverageHighLow
Temperature-20.9 °F-7.6 °F (11:00 pm)-32.8 °F (4:00 am)
Dewpoint-28.1 °F-14.8 °F (10:00 pm)-40 °F (9:00 am)
Humidity69.3 %77 % (10:00 pm)58 % (2:00 pm)
Barometer30.43 in30.56 in (5:00 am)30.16 in (11:00 pm)
Wind Speed6.8 mph11.5 mph (7:00 pm)
Weather ElementAverage
Visibility15 mi
Wind DirectionSSW (201.4 °)

Weather ElementTotal
Precipitation---
Heating Degree Days85.2 (Base 65)
Averaged from 22 records on January 31, 2013
WEATHER CONDITIONS BREAKOUT
WIND DIRECTION BREAKOUT
WEATHER BY HOUR - JANUARY 31, 2013
[ °C ]   °F
Local TimeTemperatureDewpointHumidityBarometerVisibilityWind DirectionWind SpeedGust SpeedPrecipitationEventsConditions
1:00 AM-27.4 °F-32.8 °F75 %30.52 in15.0 miNW (320°)8.1 mphClear
2:00 AM-29.2 °F-34.6 °F75 %30.53 in15.0 miWNW (300°)9.2 mphClear
3:00 AM-29.2 °F-36.4 °F68 %30.53 in15.0 miWNW (300°)5.8 mphClear
4:00 AM-32.8 °F-38.2 °F75 %30.55 in15.0 miWest (270°)5.8 mphClear
5:00 AM-31.0 °F-38.2 °F68 %30.56 in15.0 miWNW (290°)6.9 mphClear
7:00 AM-32.8 °F-38.2 °F75 %30.55 in15.0 miCalmClear
8:00 AM-32.8 °F-38.2 °F75 %30.56 in15.0 miSW (230°)6.9 mphScattered Clouds
9:00 AM-32.8 °F-40.0 °F68 %30.56 in15.0 miSW (230°)5.8 mphScattered Clouds
10:00 AM-27.4 °F-34.6 °F69 %30.53 in15.0 miSE (140°)2.3 mphPartly Cloudy
11:00 AM-23.8 °F-29.2 °F76 %30.52 in15.0 miSouth (190°)3.5 mphClear
12:00 PM-22.0 °F-29.2 °F69 %30.51 in15.0 miSSW (210°)5.8 mphClear
1:00 PM-18.4 °F-25.6 °F70 %30.46 in15.0 miSSW (210°)2.3 mphMostly Cloudy
2:00 PM-14.8 °F-25.6 °F58 %30.43 in15.0 miSouth (190°)6.9 mphScattered Clouds
3:00 PM-13.0 °F-23.8 °F59 %30.39 in15.0 miSSE (160°)9.2 mphPartly Cloudy
4:00 PM-13.0 °F-22.0 °F64 %30.37 in15.0 miSouth (180°)8.1 mphPartly Cloudy
5:00 PM-13.0 °F-22.0 °F64 %30.35 in15.0 miSouth (180°)6.9 mphScattered Clouds
6:00 PM-14.8 °F-23.8 °F64 %30.32 in15.0 miSouth (170°)8.1 mphScattered Clouds
7:00 PM-13.0 °F-20.2 °F70 %30.28 in15.0 miSouth (170°)11.5 mphMostly Cloudy
8:00 PM-11.2 °F-20.2 °F64 %30.26 in15.0 miSouth (180°)11.5 mphOvercast
9:00 PM-9.4 °F-16.6 °F71 %30.23 in15.0 miSouth (170°)8.1 mphOvercast
10:00 PM-9.4 °F-14.8 °F77 %30.20 in15.0 miSouth (180°)9.2 mphOvercast
11:00 PM-7.6 °F-14.8 °F71 %30.16 in15.0 miSSE (160°)8.1 mphOvercast
Hourly data recorded from CYXE, located miles away from Saskatoon - Water Treatment Plant, Saskatchewan







STORIES FROM OUR PARTNERS